STARLINK-31931 (59864 NORAD) Tracking and Keplerian Element Data

This shows tracking and keplerian element data for the satellite.

Feedback or suggestion? Click here.




ElementValue
Catalog59864
NameSTARLINK-31931
Epoch Orbit294
Epoch Day160.16667824
Epoch Year2024
RAAN328.0248
Inclination43.0026
Eccentricity0.0002099
Argument of Perigee258.2848
Mean Anonmoly212.7972
Mean Motion15.73521996
Decay Rate-0.01584258
L11 59864U 24098G 24160.16667824 -.01584258 00000+0 -12358-1 0 9992
L22 59864 43.0026 328.0248 0002099 258.2848 212.7972 15.73521996 2946



Live tracking and technical data element details for STARLINK-31931 (NORAD 59864). STARLINK-31931 can be tracked NOW for your location showing map with azimuth and elevation plus other details from your city location.







IsCatalogInMostPopularTable: catalog: 59864, numindb: 8
Update: records affected: 1



GetName: 59864 STARLINK-31931

Hit Count: updated at: Thu, 25 Jul 2024 00:21:12 GMT